[[{"header":{"parameterUnit":"m.s-1","parameterCategory":2,"la1":30.2991,"la2":30.254,"lo1":-89.0895,"lo2":-89.0444,"dy":0.0017,"dx":0.0017,"nx":28,"ny":28,"refTime":"2024-04-14T21:00:00:Z","depth":"0","parameterNumber":2,"parameterNumberName":"U-component_of_CURRENTS"},"data":[0,0,0,0,0,0,0,0,0,0,0,0,0,0,0,0,0,0,0,0,0,0,0,0,0,0,0,0,0,0,0,0,0,0,0,0,0,0,0,0,0,0,0,0,0,0,0,0,0,0,0,0,0,0,0,0,0,0,-0.253,-0.253,0,-0.2555,-0.2554,-0.2554,-0.2541,-0.2541,-0.2541,-0.2541,-0.2454,-0.2452,-0.2449,0,0,0,0,0,0,0,0,0,0,0,0,0,-0.2381,-0.2384,-0.253,-0.2531,-0.2532,-0.2555,-0.2554,-0.2554,-0.2541,-0.2541,-0.2541,-0.2541,-0.2455,-0.2452,-0.2449,0,0,0,0,0,0,0,0,0,0,0,0,0,-0.2423,-0.2385,-0.2529,-0.2533,-0.2534,-0.2555,-0.2554,-0.2554,-0.2541,-0.2541,-0.2541,-0.2541,-0.2456,-0.2452,-0.2449,-0.2428,0,0,-0.2438,-0.2437,0,0,0,0,0,0,0,0,-0.2421,-0.2428,-0.2532,-0.2533,-0.2534,-0.2551,-0.2471,-0.2509,-0.2541,-0.2531,-0.2541,-0.2541,-0.2481,-0.2475,-0.2471,-0.2424,-0.242,-0.2438,-0.2436,-0.2434,-0.2433,0,0,0,0,0,0,0,-0.2418,-0.2426,-0.2532,-0.2533,-0.2535,-0.2504,-0.2509,-0.2477,-0.2498,-0.2531,-0.2532,-0.2547,-0.248,-0.2475,-0.2469,-0.2419,-0.2438,-0.2435,-0.2433,-0.2431,-0.2337,-0.2336,0,0,0,0,0,0,-0.2435,-0.2424,-0.2531,-0.2534,-0.2485,-0.2507,-0.2513,-0.254,-0.25,-0.2498,-0.2547,-0.2546,-0.2481,-0.2473,-0.2466,-0.249,-0.2434,-0.2431,-0.2429,-0.2337,-0.2337,-0.2336,0,0,0,0,0,0,-0.2432,-0.2445,-0.2531,-0.2484,-0.2494,-0.2511,-0.254,-0.254,-0.2543,-0.2515,-0.2508,-0.255,-0.248,-0.2471,-0.2437,-0.2485,-0.243,-0.2426,-0.2338,-0.2337,-0.2336,-0.2506,0,0,0,0,0,0,-0.2428,-0.2444,-0.2462,-0.2486,-0.2498,-0.2554,-0.2541,-0.2541,-0.2555,-0.2554,-0.2515,-0.2507,-0.2479,-0.2442,-0.2433,-0.2479,-0.2424,-0.2338,-0.2337,-0.2337,-0.2501,-0.2511,-0.252,0,0,0,0,0,-0.2422,-0.2462,-0.2463,-0.2475,-0.2524,-0.2556,-0.2558,-0.2564,-0.2555,-0.2563,-0.2527,-0.2509,-0.2431,-0.2439,-0.2429,-0.2475,-0.2339,-0.2338,-0.2337,-0.2496,-0.2509,-0.252,0,0,0,0,0,0,-0.2393,-0.2466,-0.2467,-0.2521,-0.2539,-0.2557,-0.2571,-0.2569,-0.2549,-0.2541,-0.2503,-0.2492,-0.2475,-0.2434,-0.2445,-0.2436,-0.2381,-0.2378,-0.2506,-0.2517,-0.2527,-0.2557,-0.2421,0,0,0,0,0,-0.2399,-0.2454,-0.2492,-0.2529,-0.2545,-0.2554,-0.2565,-0.2569,-0.2562,-0.2554,-0.2526,-0.2486,-0.2462,-0.2458,-0.2412,-0.2416,-0.2377,-0.2431,-0.2441,-0.245,-0.2462,-0.2488,-0.2503,-0.2333,-0.2333,-0.2333,0,0,-0.2394,-0.2443,-0.2469,-0.2527,-0.254,-0.258,-0.2559,-0.2586,-0.2615,-0.2545,-0.2555,-0.2508,-0.2459,-0.2462,-0.2453,-0.2443,-0.2461,-0.2449,-0.2458,-0.2464,-0.2489,-0.2506,-0.2522,-0.2332,-0.2332,-0.2332,0,0,-0.2421,-0.2457,-0.2511,-0.2538,-0.2579,-0.2594,-0.2606,-0.2623,-0.2629,-0.2622,-0.2587,-0.2585,-0.2517,-0.2537,-0.2528,-0.2559,-0.2495,-0.2517,-0.2622,-0.2649,-0.2665,-0.2679,-0.2597,-0.2602,-0.2546,-0.2546,-0.2546,0,-0.2401,-0.249,-0.2522,-0.2576,-0.261,-0.2608,-0.2657,-0.2669,-0.2667,-0.2678,-0.2634,-0.2599,-0.2571,-0.2628,-0.2635,-0.2596,-0.254,-0.26,-0.267,-0.2683,-0.2695,-0.2607,-0.2611,-0.2554,-0.2553,-0.2552,-0.2551,0,-0.2479,-0.2535,-0.2567,-0.2648,-0.268,-0.2721,-0.2753,-0.2766,-0.2757,-0.2765,-0.278,-0.2748,-0.2733,-0.2734,-0.2693,-0.2768,-0.2672,-0.2672,-0.2663,-0.2724,-0.2624,-0.2625,-0.2565,-0.2563,-0.256,-0.2558,0,0,-0.2448,-0.2598,-0.2602,-0.264,-0.2725,-0.2745,-0.2815,-0.2871,-0.288,-0.2897,-0.2912,-0.2941,-0.2913,-0.2899,-0.2874,-0.2917,-0.2942,-0.2829,-0.2826,-0.2782,-0.2904,-0.2852,-0.2846,-0.2953,-0.2956,-0.2958,-0.2783,0,-0.2486,-0.261,-0.2681,-0.2756,-0.2809,-0.2848,-0.2898,-0.2941,-0.2938,-0.2934,-0.298,-0.2953,-0.2983,-0.2943,-0.3017,-0.2922,-0.2958,-0.2982,-0.2819,-0.2812,-0.2793,-0.2854,-0.2732,-0.257,-0.2784,-0.2784,-0.2784,0,-0.2525,-0.2609,-0.2721,-0.2806,-0.2829,-0.2868,-0.292,-0.2958,-0.2993,-0.2983,-0.3033,-0.2996,-0.3059,-0.3042,-0.3057,-0.3054,-0.3001,-0.2958,-0.2951,-0.2853,-0.2767,-0.2549,-0.2564,-0.2539,-0.2785,-0.2785,-0.2785,0,-0.2477,-0.2612,-0.2706,-0.2743,-0.2854,-0.2886,-0.2922,-0.2968,-0.2969,-0.2989,-0.2955,-0.3037,-0.301,-0.3032,-0.2983,-0.2988,-0.2943,-0.2938,-0.2855,-0.2844,-0.2687,-0.2661,-0.2699,-0.2975,-0.2975,-0.2976,-0.2976,0,-0.2486,-0.2535,-0.2682,-0.2719,-0.2765,-0.2849,-0.2855,-0.2898,-0.2915,-0.2901,-0.2965,-0.2953,-0.3007,-0.2986,-0.2962,-0.2907,-0.2946,-0.2875,-0.2831,-0.273,-0.2712,-0.2637,-0.2659,-0.2969,-0.297,-0.2972,-0.2973,0,-0.2404,-0.2521,-0.2601,-0.2727,-0.2743,-0.2763,-0.2789,-0.2774,-0.2825,-0.2794,-0.2793,-0.2857,-0.2852,-0.288,-0.2852,-0.285,-0.275,-0.2783,-0.2611,-0.2555,-0.2465,-0.2499,-0.2443,-0.2377,-0.2636,-0.2634,-0.2632,0,-0.2387,-0.2433,-0.2561,-0.2586,-0.2635,-0.2661,-0.2653,-0.2708,-0.2684,-0.2735,-0.2703,-0.2722,-0.2728,-0.2687,-0.2675,-0.2621,-0.2657,-0.2477,-0.2531,-0.2462,-0.2466,-0.2476,-0.2426,-0.2329,-0.2325,-0.2322,-0.2319,0,-0.2316,-0.2368,-0.2433,-0.2488,-0.25,-0.248,-0.2478,-0.2453,-0.2508,-0.2516,-0.2534,-0.255,-0.256,-0.2493,-0.2461,-0.2426,-0.2411,-0.2411,-0.2408,-0.2306,-0.2249,-0.216,-0.2369,-0.2291,-0.2294,-0.2296,-0.2298,-0.2299,-0.2234,-0.2247,-0.2326,-0.2357,-0.2361,-0.2286,-0.2208,-0.2232,-0.2194,-0.2188,-0.2312,-0.2319,-0.2328,-0.2284,-0.2256,-0.2151,-0.2219,-0.2086,-0.2137,-0.2156,-0.2118,-0.2239,-0.21,-0.2101,-0.2103,-0.2104,-0.2105,0,-0.2104,-0.213,-0.2173,-0.2172,-0.21,-0.2139,-0.2065,-0.1978,-0.191,-0.1989,-0.2011,-0.2049,-0.1992,-0.2029,-0.1967,-0.1891,-0.1848,-0.1853,-0.1841,-0.1809,-0.1945,-0.1961,-0.1706,-0.1706,-0.1706,-0.1706,-0.1706,-0.1706,-0.2036,-0.2016,-0.204,-0.1901,-0.1879,-0.1688,-0.161,-0.1561,-0.1571,-0.1582,-0.1642,-0.1749,-0.1801,-0.1943,-0.1858,-0.1775,-0.1743,-0.1673,-0.1723,-0.1833,-0.1858,-0.1883,-0.1905,-0.1642,-0.1642,-0.1486,-0.1485,-0.1485]},{"header":{"parameterUnit":"m.s-1","parameterCategory":2,"la1":30.2991,"la2":30.254,"lo1":-89.0895,"lo2":-89.0444,"dy":0.0017,"dx":0.0017,"nx":28,"ny":28,"refTime":"2024-04-14T21:00:00:Z","depth":"0","parameterNumber":3,"parameterNumberName":"V-component_of_CURRENTS"},"data":[0,0,0,0,0,0,0,0,0,0,0,0,0,0,0,0,0,0,0,0,0,0,0,0,0,0,0,0,0,0,0,0,0,0,0,0,0,0,0,0,0,0,0,0,0,0,0,0,0,0,0,0,0,0,0,0,0,0,-0.004,-0.0038,0,0.011,0.0112,0.0114,0.0177,0.0176,0.0176,0.0175,0.0347,0.0351,0.0356,0,0,0,0,0,0,0,0,0,0,0,0,0,-0.0119,-0.0119,-0.004,-0.0038,-0.0037,0.011,0.0112,0.0115,0.0177,0.0176,0.0176,0.0175,0.0345,0.0351,0.0357,0,0,0,0,0,0,0,0,0,0,0,0,0,-0.0037,-0.0119,-0.004,0.0011,0.0017,0.011,0.0112,0.0115,0.0177,0.0176,0.0176,0.0175,0.0343,0.035,0.0358,0.0417,0,0,0.038,0.0384,0,0,0,0,0,0,0,0,-0.0042,-0.0034,0.0002,0.0008,0.0014,0.0123,0.0147,0.0217,0.0177,0.0118,0.0175,0.0175,0.0273,0.0286,0.0318,0.0425,0.0432,0.0381,0.0386,0.0389,0.0391,0,0,0,0,0,0,0,-0.0048,-0.004,0.0021,0.0004,0.0011,0.0079,0.0089,0.0162,0.0199,0.0123,0.0127,0.0142,0.0277,0.0311,0.0322,0.0435,0.0381,0.0387,0.0392,0.0395,0.0601,0.0602,0,0,0,0,0,0,-0.0077,-0.0046,0.0016,0.0025,-0.0018,0.0081,0.0092,0.009,0.0198,0.0213,0.0142,0.0144,0.0298,0.0314,0.0329,0.0397,0.0389,0.0396,0.04,0.06,0.0601,0.0603,0,0,0,0,0,0,-0.008,-0.0074,0.001,-0.0007,0.0008,0.0081,0.008,0.0093,0.0122,0.0212,0.0228,0.0157,0.0298,0.0318,0.0403,0.0404,0.0399,0.0406,0.0599,0.0601,0.0602,0.0539,0,0,0,0,0,0,-0.0083,-0.0076,-0.0079,-0.001,0.0008,0.0057,0.0081,0.0097,0.0132,0.0136,0.023,0.0246,0.0299,0.0392,0.0411,0.0414,0.0412,0.0598,0.06,0.0602,0.054,0.0538,0.0537,0,0,0,0,0,-0.0087,-0.0093,-0.0081,-0.0073,-0.0003,0.0058,0.0073,0.0125,0.0133,0.0148,0.022,0.0242,0.0416,0.04,0.0421,0.0427,0.0597,0.0599,0.0601,0.0541,0.0539,0.0537,0,0,0,0,0,0,-0.0128,-0.0085,-0.0071,-0.0065,-0.0012,0.0067,0.0084,0.012,0.019,0.0191,0.027,0.0292,0.0361,0.0411,0.039,0.0493,0.0505,0.0512,0.0451,0.045,0.0449,0.0407,0.0418,0,0,0,0,0,-0.0141,-0.0138,-0.0079,-0.0073,-0.0056,0.0012,0.0044,0.008,0.0148,0.0176,0.0246,0.032,0.0391,0.0431,0.0501,0.0568,0.0582,0.0583,0.0581,0.0579,0.0561,0.0603,0.0603,0.061,0.061,0.061,0,0,-0.0153,-0.0131,-0.0128,-0.0082,-0.0043,-0.0015,0.0029,0.0069,0.0101,0.0186,0.025,0.0319,0.0408,0.0478,0.0513,0.0519,0.0582,0.0582,0.058,0.0562,0.0605,0.0604,0.0603,0.0612,0.0611,0.0611,0,0,-0.0185,-0.0164,-0.0175,-0.0141,-0.0089,-0.0035,-0.0031,0.0048,0.0087,0.0166,0.0227,0.03,0.0414,0.0476,0.0521,0.0557,0.0571,0.0573,0.0536,0.0577,0.0576,0.0575,0.0569,0.0569,0.0574,0.0574,0.0574,0,-0.0204,-0.0216,-0.0164,-0.0165,-0.0146,-0.0055,-0.0056,0.0012,0.0114,0.0142,0.0174,0.0332,0.0411,0.0488,0.0502,0.0551,0.0556,0.0532,0.0571,0.0571,0.0571,0.0566,0.0566,0.0571,0.0571,0.0572,0.0572,0,-0.0245,-0.025,-0.0254,-0.023,-0.0191,-0.0176,-0.0089,-0.0035,0.0027,0.0091,0.0178,0.0297,0.0379,0.0423,0.0479,0.0521,0.0516,0.0559,0.0564,0.0566,0.0561,0.0562,0.0567,0.0568,0.0569,0.057,0,0,-0.0301,-0.0291,-0.0292,-0.0306,-0.0234,-0.0211,-0.0149,-0.0078,-0.0052,0.0065,0.0092,0.0242,0.0291,0.0346,0.0426,0.0475,0.049,0.0508,0.0511,0.0479,0.0535,0.0589,0.0595,0.0533,0.0533,0.0534,0.0522,0,-0.0355,-0.0401,-0.0359,-0.0373,-0.039,-0.0295,-0.0245,-0.0163,-0.0079,-0.0018,0.0104,0.0171,0.0267,0.0299,0.0366,0.0458,0.0492,0.0486,0.0558,0.0559,0.059,0.0599,0.0647,0.0647,0.0523,0.0523,0.0524,0,-0.0409,-0.0439,-0.0488,-0.0474,-0.047,-0.0443,-0.0374,-0.0318,-0.0198,-0.0139,-0.0049,0.0042,0.014,0.0218,0.0359,0.0344,0.0424,0.0498,0.05,0.057,0.0616,0.0634,0.0653,0.0822,0.0525,0.0525,0.0525,0,-0.0501,-0.0519,-0.0572,-0.0571,-0.0531,-0.052,-0.0474,-0.0364,-0.0325,-0.0228,-0.0199,-0.0068,-0.0,0.0118,0.0302,0.0312,0.0442,0.0478,0.0596,0.0598,0.0664,0.0673,0.0839,0.0561,0.0561,0.0561,0.0561,0,-0.058,-0.0616,-0.0624,-0.0658,-0.0691,-0.0621,-0.0614,-0.0544,-0.0455,-0.0418,-0.028,-0.0225,-0.0018,0.0102,0.0243,0.0425,0.04,0.0577,0.0608,0.0644,0.065,0.0822,0.0889,0.056,0.056,0.056,0.0561,0,-0.0665,-0.0673,-0.0742,-0.0747,-0.0742,-0.0767,-0.071,-0.0691,-0.0599,-0.0553,-0.0531,-0.0353,-0.0187,0.0019,0.022,0.0359,0.0619,0.0589,0.0597,0.0632,0.0891,0.0951,0.1095,0.1189,0.0681,0.0682,0.0683,0,-0.0713,-0.0763,-0.0829,-0.0868,-0.0872,-0.0883,-0.0869,-0.0777,-0.0748,-0.0619,-0.0605,-0.0434,-0.0278,0.0028,0.03,0.0537,0.0685,0.071,0.0763,0.0909,0.0999,0.1028,0.1099,0.0806,0.0808,0.081,0.0811,0,-0.0805,-0.0833,-0.0897,-0.0987,-0.1011,-0.1022,-0.0997,-0.0993,-0.0869,-0.0807,-0.0689,-0.0563,-0.0227,0.0105,0.0443,0.0588,0.0837,0.0752,0.092,0.1123,0.1148,0.1253,0.0772,0.0826,0.0825,0.0824,0.0823,0.0822,-0.0865,-0.0939,-0.1022,-0.1098,-0.1129,-0.1132,-0.1124,-0.1082,-0.1026,-0.0885,-0.0762,-0.0529,-0.0031,0.0468,0.0644,0.1038,0.0982,0.1153,0.1208,0.1218,0.1346,0.0879,0.0974,0.0974,0.0973,0.0973,0.0972,0,-0.0929,-0.1009,-0.1106,-0.1183,-0.1219,-0.1203,-0.1178,-0.1137,-0.1072,-0.0904,-0.0748,-0.0201,0.0288,0.0737,0.1303,0.15,0.1536,0.1583,0.165,0.1699,0.1306,0.1354,0.1518,0.1518,0.1518,0.1518,0.1517,0.1517,-0.0965,-0.1086,-0.1146,-0.1239,-0.1267,-0.1258,-0.1238,-0.1175,-0.1046,-0.0739,-0.0428,-0.0163,0.0491,0.1403,0.1917,0.1944,0.2117,0.207,0.2163,0.1919,0.1883,0.1849,0.1913,0.2193,0.2193,0.2549,0.2553,0.2556]}],[{"header":{"parameterUnit":"m.s-1","parameterCategory":2,"la1":30.2991,"la2":30.254,"lo1":-89.0895,"lo2":-89.0444,"dy":0.0017,"dx":0.0017,"nx":28,"ny":28,"refTime":"2024-04-14T21:00:00:Z","depth":"2","parameterNumber":2,"parameterNumberName":"U-component_of_CURRENTS"},"data":[0,0,0,0,0,0,0,0,0,0,0,0,0,0,0,0,0,0,0,0,0,0,0,0,0,0,0,0,0,0,0,0,0,0,0,0,0,0,0,0,0,0,0,0,0,0,0,0,0,0,0,0,0,0,0,0,0,0,-0.217,-0.2171,0,-0.2217,-0.2217,-0.2218,-0.2253,-0.2253,-0.2254,-0.2254,-0.2258,-0.2258,-0.2258,0,0,0,0,0,0,0,0,0,0,0,0,0,-0.206,-0.2062,-0.217,-0.2171,-0.2172,-0.2217,-0.2217,-0.2218,-0.2253,-0.2253,-0.2254,-0.2254,-0.2258,-0.2258,-0.2258,0,0,0,0,0,0,0,0,0,0,0,0,0,-0.2107,-0.2063,-0.217,-0.2195,-0.2198,-0.2217,-0.2217,-0.2218,-0.2253,-0.2253,-0.2254,-0.2254,-0.2258,-0.2258,-0.2258,-0.2242,0,0,-0.2256,-0.2256,0,0,0,0,0,0,0,0,-0.2104,-0.211,-0.2191,-0.2194,-0.2197,-0.2231,-0.218,-0.2224,-0.2252,-0.2231,-0.2254,-0.2255,-0.2245,-0.2246,-0.2252,-0.2243,-0.2243,-0.2256,-0.2256,-0.2256,-0.2256,0,0,0,0,0,0,0,-0.2101,-0.2108,-0.2187,-0.2192,-0.2195,-0.2187,-0.2194,-0.2189,-0.2232,-0.2233,-0.2235,-0.2242,-0.2247,-0.2253,-0.2253,-0.2243,-0.2256,-0.2256,-0.2256,-0.2255,-0.2228,-0.2227,0,0,0,0,0,0,-0.21,-0.2106,-0.2186,-0.2189,-0.2152,-0.2189,-0.2197,-0.2218,-0.2233,-0.2237,-0.2242,-0.2244,-0.2253,-0.2253,-0.2253,-0.2319,-0.2256,-0.2255,-0.2255,-0.2228,-0.2228,-0.2227,0,0,0,0,0,0,-0.2097,-0.2107,-0.2184,-0.2148,-0.2158,-0.219,-0.2213,-0.2219,-0.2241,-0.2241,-0.2244,-0.226,-0.2254,-0.2253,-0.227,-0.2317,-0.2255,-0.2255,-0.2229,-0.2228,-0.2227,-0.2398,0,0,0,0,0,0,-0.2094,-0.2106,-0.2119,-0.2149,-0.216,-0.2219,-0.2213,-0.2219,-0.2244,-0.2247,-0.2257,-0.2257,-0.2254,-0.227,-0.2269,-0.2315,-0.2255,-0.2229,-0.2229,-0.2228,-0.2393,-0.2404,-0.2412,0,0,0,0,0,-0.209,-0.2108,-0.212,-0.2129,-0.2178,-0.2221,-0.2226,-0.2249,-0.2244,-0.2267,-0.2269,-0.2258,-0.2262,-0.2271,-0.2269,-0.2316,-0.223,-0.2229,-0.2228,-0.2389,-0.2402,-0.2412,0,0,0,0,0,0,-0.2057,-0.2114,-0.2128,-0.2159,-0.2198,-0.2228,-0.225,-0.2255,-0.2274,-0.2279,-0.2267,-0.2269,-0.229,-0.2261,-0.227,-0.2293,-0.2237,-0.2236,-0.236,-0.2372,-0.2381,-0.2391,-0.2254,0,0,0,0,0,-0.2057,-0.2092,-0.214,-0.2164,-0.2193,-0.2221,-0.2238,-0.2258,-0.2278,-0.2288,-0.2292,-0.2282,-0.2279,-0.2296,-0.2277,-0.2308,-0.2263,-0.2322,-0.2332,-0.2341,-0.2341,-0.2347,-0.2359,-0.2224,-0.2224,-0.2224,0,0,-0.2051,-0.2083,-0.2104,-0.216,-0.2195,-0.2263,-0.2235,-0.2279,-0.2332,-0.2282,-0.2345,-0.2312,-0.2284,-0.2319,-0.2325,-0.2314,-0.2345,-0.234,-0.2349,-0.2343,-0.2347,-0.2361,-0.2374,-0.2223,-0.2223,-0.2223,0,0,-0.207,-0.2094,-0.2144,-0.2182,-0.2242,-0.2284,-0.2302,-0.2348,-0.237,-0.2406,-0.2384,-0.2397,-0.2378,-0.2405,-0.2403,-0.2447,-0.2381,-0.2409,-0.2501,-0.2509,-0.2522,-0.2532,-0.2464,-0.2468,-0.2436,-0.2437,-0.2437,0,-0.2055,-0.2133,-0.2161,-0.2219,-0.2258,-0.2304,-0.237,-0.2414,-0.2453,-0.2451,-0.2442,-0.2423,-0.2433,-0.2479,-0.2505,-0.2482,-0.2424,-0.248,-0.2529,-0.2539,-0.2547,-0.2475,-0.2476,-0.2445,-0.2444,-0.2443,-0.2442,0,-0.2151,-0.2187,-0.222,-0.2328,-0.2369,-0.2432,-0.2501,-0.2546,-0.2564,-0.2568,-0.2581,-0.259,-0.2571,-0.2587,-0.2573,-0.2628,-0.2543,-0.2534,-0.2521,-0.2573,-0.249,-0.2489,-0.2456,-0.2453,-0.2451,-0.2449,0,0,-0.2143,-0.2271,-0.2275,-0.2303,-0.2428,-0.2454,-0.257,-0.2643,-0.2653,-0.2701,-0.2696,-0.2757,-0.2713,-0.2706,-0.2697,-0.2737,-0.2771,-0.2668,-0.2665,-0.2634,-0.2712,-0.2665,-0.2657,-0.2767,-0.2768,-0.2769,-0.2622,0,-0.2205,-0.2321,-0.2382,-0.2464,-0.2512,-0.258,-0.2659,-0.2708,-0.2725,-0.2728,-0.2759,-0.2738,-0.2775,-0.2747,-0.2809,-0.2749,-0.2777,-0.2806,-0.2634,-0.2627,-0.2611,-0.266,-0.2458,-0.2313,-0.2621,-0.2621,-0.262,0,-0.226,-0.2322,-0.2435,-0.2476,-0.2507,-0.2577,-0.2645,-0.271,-0.2746,-0.2736,-0.2756,-0.2725,-0.2792,-0.2797,-0.2811,-0.2811,-0.2778,-0.2756,-0.2749,-0.2647,-0.2581,-0.231,-0.2298,-0.2617,-0.2618,-0.2618,-0.2618,0,-0.2201,-0.2314,-0.2401,-0.2433,-0.2541,-0.2578,-0.2642,-0.2691,-0.2702,-0.2719,-0.2694,-0.2738,-0.2742,-0.2748,-0.2748,-0.2751,-0.2719,-0.2712,-0.2639,-0.263,-0.2396,-0.2367,-0.2726,-0.2726,-0.2726,-0.2727,-0.2727,0,-0.2204,-0.2239,-0.237,-0.2402,-0.2446,-0.2516,-0.2539,-0.2598,-0.2633,-0.2619,-0.2678,-0.2678,-0.2733,-0.2725,-0.2715,-0.2674,-0.2701,-0.265,-0.2612,-0.2443,-0.2421,-0.2638,-0.263,-0.2721,-0.2722,-0.2723,-0.2724,0,-0.2116,-0.2218,-0.227,-0.239,-0.2413,-0.2427,-0.249,-0.2485,-0.2548,-0.2537,-0.2543,-0.2615,-0.2618,-0.2645,-0.2629,-0.2622,-0.2583,-0.2563,-0.2333,-0.2275,-0.2475,-0.2477,-0.2429,-0.2426,-0.2424,-0.2423,-0.2421,0,-0.2108,-0.2145,-0.2245,-0.2258,-0.2316,-0.2347,-0.2363,-0.243,-0.2423,-0.2496,-0.248,-0.2512,-0.2518,-0.2487,-0.2462,-0.2404,-0.2513,-0.2193,-0.2216,-0.2489,-0.2456,-0.246,-0.2465,-0.193,-0.1925,-0.192,-0.1917,0,-0.2073,-0.2116,-0.2152,-0.2186,-0.2196,-0.2193,-0.2224,-0.2218,-0.2288,-0.2308,-0.2342,-0.2357,-0.2362,-0.2243,-0.2205,-0.2156,-0.219,-0.2104,-0.2437,-0.2075,-0.2019,-0.1987,-0.2007,-0.1878,-0.1882,-0.1885,-0.1887,-0.1889,-0.2029,-0.203,-0.2074,-0.2071,-0.2068,-0.2029,-0.1982,-0.2025,-0.2006,-0.2014,-0.2132,-0.2098,-0.211,-0.1957,-0.1882,-0.182,-0.1974,-0.1878,-0.189,-0.1908,-0.1916,-0.1864,-0.1689,-0.1691,-0.1694,-0.1696,-0.1697,0,-0.1945,-0.1955,-0.197,-0.1919,-0.1841,-0.1892,-0.1866,-0.18,-0.1751,-0.1797,-0.1812,-0.1657,-0.1587,-0.1612,-0.146,-0.1452,-0.1432,-0.1392,-0.1353,-0.1391,-0.1425,-0.141,-0.1047,-0.1046,-0.1044,-0.1042,0,0,-0.1898,-0.1862,-0.1854,-0.1681,-0.1652,-0.15,-0.1454,-0.1418,-0.1411,-0.1366,-0.1342,-0.1461,-0.1532,-0.1269,-0.1228,-0.111,-0.1235,-0.1056,-0.1572,-0.156,-0.1592,-0.1696,-0.1715,0,0,0,0,0]},{"header":{"parameterUnit":"m.s-1","parameterCategory":2,"la1":30.2991,"la2":30.254,"lo1":-89.0895,"lo2":-89.0444,"dy":0.0017,"dx":0.0017,"nx":28,"ny":28,"refTime":"2024-04-14T21:00:00:Z","depth":"2","parameterNumber":3,"parameterNumberName":"V-component_of_CURRENTS"},"data":[0,0,0,0,0,0,0,0,0,0,0,0,0,0,0,0,0,0,0,0,0,0,0,0,0,0,0,0,0,0,0,0,0,0,0,0,0,0,0,0,0,0,0,0,0,0,0,0,0,0,0,0,0,0,0,0,0,0,-0.0183,-0.0182,0,-0.0059,-0.0058,-0.0056,0.0019,0.0019,0.0019,0.0019,0.0229,0.0235,0.024,0,0,0,0,0,0,0,0,0,0,0,0,0,-0.0222,-0.0222,-0.0183,-0.0181,-0.018,-0.006,-0.0058,-0.0056,0.0019,0.0019,0.0019,0.0019,0.0227,0.0234,0.0241,0,0,0,0,0,0,0,0,0,0,0,0,0,-0.016,-0.0222,-0.0183,-0.0131,-0.0125,-0.006,-0.0058,-0.0055,0.0019,0.0019,0.0019,0.0019,0.0225,0.0233,0.0241,0.0289,0,0,0.0267,0.027,0,0,0,0,0,0,0,0,-0.0164,-0.0158,-0.014,-0.0134,-0.0128,-0.0038,0.0005,0.0063,0.0019,-0.0033,0.0019,0.0019,0.0146,0.0161,0.0187,0.0299,0.0308,0.0267,0.0272,0.0276,0.0278,0,0,0,0,0,0,0,-0.0168,-0.0162,-0.0131,-0.0138,-0.0131,-0.0068,-0.006,0.0017,0.0058,-0.0028,-0.0023,-0.0014,0.015,0.0178,0.0192,0.0311,0.0267,0.0274,0.028,0.0283,0.0504,0.0505,0,0,0,0,0,0,-0.0197,-0.0167,-0.0135,-0.0127,-0.0149,-0.0069,-0.0059,-0.0064,0.0056,0.0073,-0.0014,-0.0011,0.0164,0.0182,0.02,0.0289,0.0276,0.0284,0.0288,0.0503,0.0504,0.0505,0,0,0,0,0,0,-0.0198,-0.0196,-0.014,-0.0146,-0.0135,-0.0069,-0.0075,-0.0062,-0.0033,0.0065,0.0084,0.0001,0.0165,0.0188,0.0292,0.0297,0.0287,0.0295,0.0502,0.0504,0.0505,0.0451,0,0,0,0,0,0,-0.02,-0.0197,-0.0203,-0.0149,-0.0136,-0.0105,-0.0075,-0.006,-0.0029,-0.0023,0.0085,0.0104,0.0167,0.028,0.0301,0.0308,0.0301,0.0501,0.0503,0.0504,0.0452,0.045,0.0449,0,0,0,0,0,-0.0202,-0.0219,-0.0205,-0.02,-0.015,-0.0105,-0.0092,-0.0042,-0.0029,-0.0015,0.0075,0.0101,0.0304,0.0288,0.0312,0.0322,0.05,0.0502,0.0504,0.0452,0.0451,0.0449,0,0,0,0,0,0,-0.0236,-0.0212,-0.0195,-0.0203,-0.0158,-0.0094,-0.0079,-0.0047,0.0032,0.0043,0.0131,0.0159,0.0245,0.0296,0.0275,0.039,0.0399,0.0406,0.0351,0.0351,0.035,0.0302,0.0308,0,0,0,0,0,-0.025,-0.0258,-0.0212,-0.0216,-0.02,-0.014,-0.0115,-0.008,-0.0009,0.0023,0.0104,0.019,0.0271,0.0321,0.0399,0.0473,0.0486,0.049,0.0488,0.0487,0.0465,0.0498,0.0497,0.0512,0.0512,0.0512,0,0,-0.0263,-0.0252,-0.0254,-0.0223,-0.0187,-0.0159,-0.0124,-0.0091,-0.0053,0.0037,0.012,0.0194,0.0291,0.0374,0.0415,0.0419,0.0491,0.049,0.0488,0.0466,0.05,0.0498,0.0497,0.0514,0.0513,0.0513,0,0,-0.0298,-0.0285,-0.0302,-0.0275,-0.0232,-0.0177,-0.0172,-0.0102,-0.0057,0.0033,0.0101,0.0178,0.0311,0.0374,0.0424,0.0463,0.0483,0.0485,0.0446,0.0479,0.0477,0.0475,0.0485,0.0484,0.0485,0.0485,0.0485,0,-0.0312,-0.0335,-0.0295,-0.0301,-0.0284,-0.0191,-0.019,-0.012,-0.0017,0.0009,0.0053,0.0217,0.0306,0.0384,0.0406,0.0458,0.0469,0.0442,0.0474,0.0473,0.0472,0.0482,0.0482,0.0483,0.0483,0.0483,0.0483,0,-0.0359,-0.0371,-0.0378,-0.0351,-0.0316,-0.0301,-0.021,-0.0152,-0.008,-0.0022,0.0066,0.0193,0.0273,0.0322,0.0389,0.0425,0.0431,0.0464,0.0466,0.0466,0.0478,0.0479,0.0479,0.048,0.0481,0.0481,0,0,-0.0404,-0.0412,-0.0413,-0.0425,-0.035,-0.0328,-0.0255,-0.0182,-0.0153,-0.0037,-0.0011,0.0145,0.0182,0.024,0.0322,0.0368,0.0393,0.041,0.0413,0.0398,0.0442,0.0489,0.0495,0.0428,0.0428,0.0428,0.0449,0,-0.045,-0.0504,-0.047,-0.0476,-0.0492,-0.0396,-0.0338,-0.0258,-0.0168,-0.0105,0.0004,0.0076,0.0162,0.02,0.0257,0.0364,0.0394,0.0382,0.0462,0.0463,0.0489,0.0498,0.0469,0.049,0.0451,0.0451,0.0451,0,-0.0504,-0.0537,-0.0584,-0.0572,-0.0565,-0.0532,-0.0453,-0.0391,-0.0278,-0.0218,-0.0144,-0.0055,0.004,0.0113,0.0253,0.0238,0.0323,0.0402,0.0405,0.0463,0.0513,0.0488,0.0493,0.0453,0.0453,0.0453,0.0453,0,-0.0587,-0.0607,-0.0654,-0.0654,-0.0613,-0.06,-0.0547,-0.0444,-0.0398,-0.0303,-0.027,-0.0157,-0.0082,0.0027,0.0216,0.0223,0.0361,0.0392,0.0501,0.0505,0.0502,0.0506,0.0461,0.0461,0.0461,0.0461,0.0461,0,-0.0661,-0.0694,-0.0703,-0.0736,-0.0758,-0.0695,-0.0679,-0.0609,-0.0518,-0.0478,-0.035,-0.0291,-0.0096,0.0026,0.0164,0.0342,0.0319,0.0483,0.0516,0.0485,0.0487,0.0476,0.0478,0.0462,0.0462,0.0462,0.0461,0,-0.0745,-0.0755,-0.0817,-0.0817,-0.081,-0.0828,-0.0764,-0.074,-0.0648,-0.0592,-0.0567,-0.0393,-0.0227,-0.0033,0.0167,0.0291,0.0445,0.051,0.0455,0.0483,0.0566,0.0564,0.0602,0.0604,0.0606,0.0607,0.0608,0,-0.0794,-0.0843,-0.0897,-0.0929,-0.093,-0.0934,-0.0915,-0.0819,-0.0783,-0.0645,-0.0623,-0.0451,-0.0302,-0.0,0.0242,0.0466,0.0484,0.0563,0.0586,0.0552,0.0581,0.0577,0.0574,0.0552,0.0553,0.0553,0.0554,0,-0.0884,-0.0908,-0.0964,-0.1043,-0.1058,-0.1053,-0.1022,-0.1009,-0.088,-0.0813,-0.0689,-0.0567,-0.025,0.0024,0.0337,0.046,0.0526,0.0581,0.0561,0.0534,0.0511,0.0538,0.0535,0.0558,0.0557,0.0557,0.0557,0.0557,-0.0939,-0.1008,-0.1085,-0.1148,-0.1165,-0.1151,-0.1137,-0.1084,-0.1019,-0.0876,-0.0754,-0.054,-0.0262,0.0188,0.0407,0.0603,0.0599,0.0646,0.0641,0.0637,0.0641,0.0624,0.069,0.069,0.069,0.0691,0.0691,0,-0.1,-0.1079,-0.1166,-0.1226,-0.1243,-0.1222,-0.118,-0.1133,-0.1062,-0.0899,-0.0748,-0.0445,-0.0114,0.0166,0.0496,0.0693,0.0667,0.0706,0.0643,0.0638,0.0634,0.0635,0.0684,0.0685,0.0685,0.0686,0,0,-0.1039,-0.1155,-0.1212,-0.1277,-0.1291,-0.1263,-0.1234,-0.1164,-0.1042,-0.0881,-0.0706,-0.0453,-0.01,0.0131,0.0379,0.055,0.0537,0.0551,0.0536,0.0428,0.0421,0.0578,0.0572,0,0,0,0,0]}],[{"header":{"parameterUnit":"m.s-1","parameterCategory":2,"la1":30.2991,"la2":30.254,"lo1":-89.0895,"lo2":-89.0444,"dy":0.0017,"dx":0.0017,"nx":28,"ny":28,"refTime":"2024-04-14T21:00:00:Z","depth":"4","parameterNumber":2,"parameterNumberName":"U-component_of_CURRENTS"},"data":[0,0,0,0,0,0,0,0,0,0,0,0,0,0,0,0,0,0,0,0,0,0,0,0,0,0,0,0,0,0,0,0,0,0,0,0,0,0,0,0,0,0,0,0,0,0,0,0,0,0,0,0,0,0,0,0,0,0,-0.1156,-0.1157,0,-0.1206,-0.1206,-0.1206,-0.1253,-0.1254,-0.1255,-0.1256,-0.1241,-0.124,-0.1239,0,0,0,0,0,0,0,0,0,0,0,0,0,-0.1109,-0.1109,-0.1156,-0.1157,-0.1158,-0.1206,-0.1206,-0.1206,-0.1253,-0.1255,-0.1256,-0.1257,-0.1242,-0.124,-0.1238,0,0,0,0,0,0,0,0,0,0,0,0,0,-0.1137,-0.1109,-0.1156,-0.119,-0.1194,-0.1206,-0.1206,-0.1206,-0.1253,-0.1255,-0.1256,-0.1257,-0.1242,-0.124,-0.1238,-0.1195,0,0,-0.1232,-0.1231,0,0,0,0,0,0,0,0,-0.1135,-0.1138,-0.1184,-0.1188,-0.1193,-0.1229,-0.1184,-0.1201,-0.1253,-0.1226,-0.1256,-0.1258,-0.1233,-0.1232,-0.1232,-0.1194,-0.1194,-0.1232,-0.1231,-0.123,-0.1229,0,0,0,0,0,0,0,-0.1133,-0.1136,-0.1171,-0.1185,-0.1191,-0.1207,-0.1212,-0.1188,-0.1215,-0.1228,-0.1233,-0.1245,-0.1234,-0.1234,-0.1232,-0.1193,-0.1232,-0.123,-0.1229,-0.1228,-0.1246,-0.1248,0,0,0,0,0,0,-0.1134,-0.1134,-0.1169,-0.1173,-0.1172,-0.1207,-0.1212,-0.1212,-0.1217,-0.1221,-0.1244,-0.1248,-0.1237,-0.1234,-0.1232,-0.1272,-0.123,-0.1228,-0.1227,-0.1244,-0.1246,-0.1248,0,0,0,0,0,0,-0.1133,-0.1136,-0.1167,-0.1159,-0.1165,-0.1206,-0.1206,-0.1212,-0.1238,-0.1231,-0.1233,-0.1266,-0.1238,-0.1234,-0.1242,-0.1268,-0.1227,-0.1225,-0.1242,-0.1245,-0.1247,-0.1293,0,0,0,0,0,0,-0.1131,-0.1135,-0.1135,-0.1159,-0.1166,-0.1183,-0.1205,-0.1212,-0.1244,-0.1249,-0.125,-0.1249,-0.1239,-0.1245,-0.124,-0.1264,-0.1223,-0.124,-0.1244,-0.1247,-0.1289,-0.1296,-0.1303,0,0,0,0,0,-0.1128,-0.1121,-0.1134,-0.114,-0.1164,-0.1184,-0.1188,-0.122,-0.1244,-0.1249,-0.1265,-0.125,-0.1262,-0.1244,-0.1237,-0.1262,-0.1239,-0.1243,-0.1246,-0.1286,-0.1295,-0.1303,0,0,0,0,0,0,-0.1116,-0.1126,-0.1142,-0.1142,-0.1168,-0.1194,-0.1205,-0.1229,-0.1245,-0.1256,-0.1254,-0.1254,-0.1278,-0.1262,-0.1242,-0.1282,-0.1254,-0.1257,-0.1287,-0.1295,-0.1302,-0.132,-0.1222,0,0,0,0,0,-0.1109,-0.1099,-0.1128,-0.1132,-0.1145,-0.1179,-0.1193,-0.1216,-0.1236,-0.1247,-0.1257,-0.1269,-0.1283,-0.1283,-0.1287,-0.1287,-0.1303,-0.1307,-0.1314,-0.132,-0.1334,-0.1371,-0.1382,-0.1261,-0.1261,-0.1261,0,0,-0.1106,-0.1114,-0.1109,-0.1128,-0.1151,-0.1176,-0.1191,-0.1217,-0.1251,-0.1238,-0.1282,-0.1289,-0.1291,-0.1312,-0.1321,-0.1302,-0.1369,-0.1324,-0.1329,-0.134,-0.1376,-0.1388,-0.1399,-0.1263,-0.1263,-0.1263,0,0,-0.1097,-0.1104,-0.1096,-0.112,-0.1155,-0.1177,-0.1191,-0.1229,-0.1259,-0.1286,-0.1308,-0.1329,-0.1336,-0.1352,-0.1358,-0.14,-0.1408,-0.1413,-0.1451,-0.1488,-0.1498,-0.1507,-0.1564,-0.1578,-0.141,-0.141,-0.141,0,-0.1103,-0.1098,-0.1101,-0.1118,-0.1152,-0.1184,-0.1214,-0.124,-0.1281,-0.132,-0.1307,-0.1369,-0.1356,-0.1407,-0.1429,-0.1413,-0.1451,-0.1414,-0.1496,-0.1505,-0.1513,-0.157,-0.1585,-0.1412,-0.1412,-0.1412,-0.1412,0,-0.1082,-0.1105,-0.111,-0.114,-0.1172,-0.12,-0.1249,-0.1289,-0.1326,-0.1365,-0.1428,-0.1416,-0.1463,-0.146,-0.1451,-0.152,-0.1535,-0.1503,-0.1471,-0.1528,-0.1585,-0.1599,-0.1416,-0.1415,-0.1415,-0.1414,0,0,-0.1047,-0.1086,-0.1093,-0.1137,-0.1193,-0.1225,-0.1286,-0.1359,-0.1433,-0.1449,-0.1542,-0.1539,-0.156,-0.157,-0.1567,-0.1583,-0.1665,-0.1576,-0.1577,-0.1629,-0.1783,-0.1616,-0.1616,-0.1656,-0.1658,-0.166,-0.1806,0,-0.1046,-0.1074,-0.1099,-0.1173,-0.1211,-0.1278,-0.134,-0.1416,-0.1482,-0.1576,-0.1585,-0.1657,-0.1596,-0.1634,-0.1642,-0.1672,-0.1703,-0.163,-0.1724,-0.1728,-0.1567,-0.1626,-0.1667,-0.1816,-0.1819,-0.1822,-0.1823,0,-0.1018,-0.1056,-0.1105,-0.1222,-0.1247,-0.1303,-0.1444,-0.1506,-0.1633,-0.1687,-0.1755,-0.1788,-0.184,-0.1769,-0.1831,-0.1798,-0.1804,-0.1801,-0.1806,-0.1642,-0.1586,-0.1743,-0.1849,-0.1847,-0.1845,-0.1844,-0.1842,0,-0.0981,-0.107,-0.1115,-0.115,-0.127,-0.1338,-0.1417,-0.1549,-0.1634,-0.1785,-0.1856,-0.1924,-0.1962,-0.1979,-0.1948,-0.1926,-0.2005,-0.1972,-0.1832,-0.1822,-0.1909,-0.1897,-0.2021,-0.2021,-0.202,-0.202,-0.2019,0,-0.0959,-0.1009,-0.1115,-0.1145,-0.1243,-0.1348,-0.1483,-0.1566,-0.1729,-0.1826,-0.1917,-0.197,-0.2015,-0.2049,-0.2026,-0.196,-0.2067,-0.1858,-0.1843,-0.1928,-0.1917,-0.1921,-0.1907,-0.2025,-0.2024,-0.2023,-0.2022,0,-0.0896,-0.0955,-0.1022,-0.1161,-0.1221,-0.1292,-0.1499,-0.1612,-0.1753,-0.1886,-0.1937,-0.2049,-0.2073,-0.2092,-0.2125,-0.2031,-0.2007,-0.1955,-0.2077,-0.2065,-0.1801,-0.1789,-0.1859,-0.1854,-0.185,-0.1847,-0.1844,0,-0.0857,-0.0876,-0.1005,-0.1057,-0.1126,-0.1275,-0.1393,-0.159,-0.1704,-0.1887,-0.1932,-0.2026,-0.2062,-0.1995,-0.2011,-0.1991,-0.193,-0.1941,-0.1837,-0.1803,-0.1784,-0.1777,-0.1771,-0.1838,-0.1837,-0.1835,-0.1834,0,-0.0777,-0.0809,-0.0856,-0.0962,-0.1085,-0.1242,-0.1416,-0.149,-0.1704,-0.1842,-0.188,-0.1891,-0.191,-0.1897,-0.1883,-0.185,-0.1951,-0.1898,-0.1906,-0.1809,-0.1778,-0.1761,-0.1759,-0.182,-0.1822,-0.1824,-0.1825,0,-0.0702,-0.0693,-0.0747,-0.0848,-0.1005,-0.1161,-0.1277,-0.1422,-0.1552,-0.1746,-0.174,-0.1809,-0.1891,-0.1824,-0.1807,-0.1765,-0.1729,-0.1669,-0.1688,-0.1704,-0.1569,-0.1502,-0.1463,0,0,0,0,0,-0.0622,-0.0592,-0.0649,-0.0766,-0.094,-0.1045,-0.1275,-0.1405,-0.1599,-0.1585,-0.1664,-0.1665,-0.1638,-0.1672,-0.1591,-0.1724,-0.1734,-0.1623,-0.1675,-0.1742,-0.1759,-0.1605,0,0,0,0,0,0,-0.0556,-0.0555,-0.0582,-0.0702,-0.079,-0.0996,-0.1142,-0.1285,-0.1295,-0.145,-0.1443,-0.154,-0.1537,-0.1638,-0.1541,-0.155,-0.1547,-0.1669,-0.1664,-0.1733,-0.1748,-0.1761,-0.1609,0,0,0,0,0]},{"header":{"parameterUnit":"m.s-1","parameterCategory":2,"la1":30.2991,"la2":30.254,"lo1":-89.0895,"lo2":-89.0444,"dy":0.0017,"dx":0.0017,"nx":28,"ny":28,"refTime":"2024-04-14T21:00:00:Z","depth":"4","parameterNumber":3,"parameterNumberName":"V-component_of_CURRENTS"},"data":[0,0,0,0,0,0,0,0,0,0,0,0,0,0,0,0,0,0,0,0,0,0,0,0,0,0,0,0,0,0,0,0,0,0,0,0,0,0,0,0,0,0,0,0,0,0,0,0,0,0,0,0,0,0,0,0,0,0,-0.0254,-0.0253,0,-0.0223,-0.0222,-0.0222,-0.019,-0.019,-0.0189,-0.0189,-0.0167,-0.0167,-0.0166,0,0,0,0,0,0,0,0,0,0,0,0,0,-0.0235,-0.0236,-0.0254,-0.0253,-0.0253,-0.0223,-0.0222,-0.0222,-0.019,-0.019,-0.0189,-0.0189,-0.0167,-0.0167,-0.0166,0,0,0,0,0,0,0,0,0,0,0,0,0,-0.0227,-0.0236,-0.0254,-0.0234,-0.0232,-0.0223,-0.0222,-0.0222,-0.019,-0.019,-0.0189,-0.0189,-0.0167,-0.0167,-0.0166,-0.0175,0,0,-0.0165,-0.0165,0,0,0,0,0,0,0,0,-0.0228,-0.0228,-0.0237,-0.0235,-0.0233,-0.021,-0.0207,-0.0207,-0.019,-0.0205,-0.0189,-0.0188,-0.0183,-0.0181,-0.0176,-0.0174,-0.0173,-0.0165,-0.0165,-0.0165,-0.0165,0,0,0,0,0,0,0,-0.0228,-0.0228,-0.0241,-0.0237,-0.0234,-0.0209,-0.0208,-0.0207,-0.0197,-0.0204,-0.0202,-0.02,-0.0182,-0.0176,-0.0175,-0.0173,-0.0165,-0.0165,-0.0165,-0.0164,-0.0144,-0.0144,0,0,0,0,0,0,-0.0237,-0.023,-0.0242,-0.024,-0.023,-0.021,-0.0209,-0.0218,-0.0197,-0.0194,-0.02,-0.0198,-0.0177,-0.0175,-0.0174,-0.017,-0.0165,-0.0164,-0.0164,-0.0144,-0.0144,-0.0144,0,0,0,0,0,0,-0.0237,-0.0239,-0.0243,-0.0233,-0.0232,-0.0212,-0.0221,-0.0217,-0.0214,-0.0194,-0.019,-0.0201,-0.0176,-0.0175,-0.0172,-0.017,-0.0164,-0.0164,-0.0145,-0.0144,-0.0144,-0.0171,0,0,0,0,0,0,-0.0237,-0.0239,-0.0248,-0.0235,-0.0233,-0.0244,-0.0222,-0.0217,-0.0214,-0.0211,-0.0194,-0.0191,-0.0176,-0.0172,-0.0171,-0.0169,-0.0164,-0.0145,-0.0144,-0.0144,-0.0171,-0.0172,-0.0172,0,0,0,0,0,-0.0236,-0.0253,-0.0249,-0.025,-0.0247,-0.0245,-0.0242,-0.0224,-0.0214,-0.0218,-0.0201,-0.0192,-0.0167,-0.0172,-0.0171,-0.0169,-0.0145,-0.0145,-0.0144,-0.017,-0.0171,-0.0172,0,0,0,0,0,0,-0.0249,-0.0251,-0.0246,-0.0263,-0.0256,-0.024,-0.0242,-0.0231,-0.022,-0.0218,-0.0197,-0.0193,-0.0185,-0.0175,-0.0181,-0.0158,-0.0151,-0.015,-0.0171,-0.0173,-0.0173,-0.0186,-0.0163,0,0,0,0,0,-0.0257,-0.0272,-0.0264,-0.0278,-0.0277,-0.0261,-0.0258,-0.0247,-0.0236,-0.0231,-0.0218,-0.0199,-0.0181,-0.0177,-0.0162,-0.0161,-0.0125,-0.0154,-0.0155,-0.0156,-0.0164,-0.0112,-0.0109,-0.0141,-0.0141,-0.0141,0,0,-0.0267,-0.0269,-0.0278,-0.0281,-0.0275,-0.0279,-0.0258,-0.0259,-0.0256,-0.0232,-0.0226,-0.0206,-0.0181,-0.017,-0.0165,-0.0163,-0.0122,-0.0155,-0.0156,-0.0163,-0.0111,-0.0107,-0.0105,-0.0141,-0.0141,-0.0141,0,0,-0.0292,-0.0296,-0.0314,-0.0314,-0.0309,-0.0296,-0.03,-0.0287,-0.0275,-0.027,-0.0242,-0.0227,-0.0208,-0.0186,-0.0172,-0.0173,-0.0128,-0.0161,-0.0179,-0.0129,-0.0126,-0.0123,-0.0048,-0.0039,-0.0162,-0.0163,-0.0163,0,-0.03,-0.0327,-0.0318,-0.0332,-0.0335,-0.0307,-0.0323,-0.0305,-0.0291,-0.0277,-0.0273,-0.0226,-0.0215,-0.0186,-0.0187,-0.0177,-0.0129,-0.0179,-0.013,-0.0127,-0.0123,-0.0048,-0.0037,-0.0164,-0.0164,-0.0163,-0.0163,0,-0.034,-0.0358,-0.0369,-0.0377,-0.0375,-0.0387,-0.0363,-0.0351,-0.0332,-0.0308,-0.0278,-0.0255,-0.0224,-0.0215,-0.0207,-0.0173,-0.0138,-0.0137,-0.013,-0.0122,-0.0042,-0.003,-0.0165,-0.0165,-0.0165,-0.0164,0,0,-0.0365,-0.0393,-0.0397,-0.0409,-0.0404,-0.0405,-0.0393,-0.0371,-0.0351,-0.0327,-0.0298,-0.0276,-0.025,-0.0233,-0.0208,-0.0178,-0.0114,-0.0153,-0.015,-0.0083,0.0027,0.0004,0.0015,-0.0098,-0.0097,-0.0096,0.0082,0,-0.0398,-0.0446,-0.0442,-0.0468,-0.0488,-0.0457,-0.0446,-0.0416,-0.0378,-0.0337,-0.0294,-0.0261,-0.0256,-0.0239,-0.0205,-0.0134,-0.0087,-0.016,0.0013,0.0018,-0.0008,0.0025,-0.0091,0.0091,0.0094,0.0096,0.0097,0,-0.0435,-0.0465,-0.0513,-0.0518,-0.052,-0.0525,-0.0493,-0.0477,-0.0405,-0.0372,-0.0321,-0.0271,-0.0214,-0.0218,-0.0086,-0.0127,-0.0057,-0.0006,0.0003,-0.0008,0.0015,0.0076,0.0119,0.0118,0.0116,0.0115,0.0113,0,-0.0467,-0.0503,-0.0546,-0.0555,-0.0559,-0.0562,-0.055,-0.0495,-0.0472,-0.039,-0.0358,-0.0265,-0.0222,-0.0124,-0.0026,-0.0041,0.0124,0.0125,0.0178,0.018,0.016,0.0154,0.0216,0.0216,0.0215,0.0215,0.0214,0,-0.0501,-0.053,-0.0571,-0.0594,-0.0625,-0.0606,-0.0605,-0.0568,-0.0509,-0.0475,-0.0385,-0.0337,-0.0202,-0.0093,0.0001,0.013,0.0157,0.0184,0.0218,0.0148,0.014,0.017,0.0163,0.0222,0.022,0.0219,0.0218,0,-0.0523,-0.0554,-0.0605,-0.0637,-0.0647,-0.0669,-0.0661,-0.0647,-0.0585,-0.0534,-0.051,-0.0372,-0.0226,-0.0083,0.0092,0.0155,0.0283,0.0319,0.0257,0.0284,0.031,0.0299,0.0422,0.0423,0.0423,0.0424,0.0424,0,-0.0538,-0.0571,-0.0645,-0.0683,-0.0705,-0.0733,-0.0744,-0.0697,-0.0675,-0.056,-0.0535,-0.0383,-0.0283,-0.0028,0.0107,0.0322,0.0321,0.0404,0.0328,0.0308,0.0329,0.0317,0.0306,0.0425,0.0425,0.0425,0.0425,0,-0.0553,-0.059,-0.0635,-0.0728,-0.0771,-0.0804,-0.0814,-0.08,-0.0726,-0.0674,-0.0538,-0.039,-0.0222,-0.0031,0.0133,0.0271,0.0361,0.0409,0.0408,0.0338,0.0312,0.033,0.0319,0.0427,0.0426,0.0426,0.0426,0,-0.0561,-0.0599,-0.0672,-0.0749,-0.0818,-0.0855,-0.0855,-0.0814,-0.0775,-0.0639,-0.0597,-0.0399,-0.0274,-0.0056,0.0092,0.0232,0.0255,0.0281,0.0288,0.0288,0.017,0.0113,0.0204,0,0,0,0,0,-0.0554,-0.0598,-0.0679,-0.0766,-0.0844,-0.0881,-0.0887,-0.087,-0.0802,-0.0714,-0.0647,-0.0484,-0.0232,-0.0117,0.002,0.0076,0.026,0.0238,0.0288,0.0435,0.0433,0.0311,0,0,0,0,0,0,-0.0549,-0.0616,-0.0672,-0.0772,-0.0836,-0.0901,-0.0912,-0.087,-0.0807,-0.0718,-0.0583,-0.0476,-0.0235,-0.0315,0.0014,0.006,0.0104,0.0367,0.0369,0.0436,0.0434,0.0433,0.0307,0,0,0,0,0]}]]